Location: Kyakala
(1.4167°N, 32.2667°E)
Time: 03:27:39
(UTC+00:00)

Daily predictions for brighter satellites

Satellite Brightness Start Highest point End
(mag) Time Altitude Azimuth Time Altitude Azimuth Time Altitude Azimuth
Palapa 6 Rocket 4.5 01:15:41 63° S 01:15:41 63° S 01:23:12 10° ESE
Cosmos 1697 Rocket 3.9 01:21:30 32° NE 01:22:45 36° ENE 01:27:50 10° SE
BLOCK DM-SL R/B 3.9 01:26:46 70° WSW 01:27:39 84° S 01:52:31 10° E
Cosmos 1656 4.0 01:31:14 57° S 01:31:14 57° S 01:35:36 10° SSE
Cosmos 1153 Rocket 4.4 01:27:03 10° S 01:33:14 85° E 01:34:21 62° NNE
Cosmos 2150 Rocket 4.1 01:32:23 10° S 01:37:50 80° ESE 01:38:50 60° NNE
Cosmos 372 Rocket 4.0 01:34:47 10° S 01:47:02 - NNE 01:39:33 73° SSE
Ariane 42L Rocket 3.3 01:41:57 49° S 01:42:18 50° SSE 01:52:52 10° E
ASTRO E2 3.9 01:44:24 39° SE 01:44:24 39° SE 01:47:01 10° SE
MSX 4.0 01:45:47 56° SW 01:45:47 56° SW 01:50:30 10° SSW
Lacrosse 4 Rocket 3.5 01:48:56 18° SSW 01:48:56 18° SSW 01:50:14 10° S
ISS -1.9 01:48:26 30° ESE 01:48:26 30° ESE 01:50:24 10° SE
Meteor 2-10 Rocket 4.1 01:48:19 47° SW 01:48:19 47° SW 01:52:56 10° S
CZ-2C R/B 2.3 01:47:50 41° NNE 01:49:23 74° ESE 01:53:56 10° S
Cosmos 2123 Rocket 3.8 01:48:59 47° NNW 01:50:53 77° W 01:57:11 10° S
SL-24 R/B 4.5 01:51:24 54° N 01:52:38 79° W 01:58:19 10° S
PAYLOAD A 4.0 01:57:10 44° NNW 01:58:44 64° WNW 02:04:00 10° SSW
Meteor 1-31 Rocket 3.1 01:58:08 23° NNE 02:00:29 67° ESE 02:04:23 10° S
FALCON 9 R/B 3.5 02:04:52 27° NNW 02:05:11 27° NNW 02:14:12 10° NE
Cosmos 1833 4.0 02:00:38 10° SSW 02:06:15 73° WNW 02:11:50 10° N
Meteor 1-27 4.1 02:03:21 26° NNW 02:06:45 76° W 02:12:30 10° S
Centaur D-1AR AC-39 4.4 02:07:30 10° N 02:10:43 15° NE 02:17:00 10° ENE
Cosmos 1459 Rocket 3.8 02:04:41 10° S 02:10:48 82° W 02:16:59 10° N
Milstar 3 3.6 02:10:42 24° NW 02:16:07 51° NNE 02:22:42 10° E
Cosmos 2151 3.0 02:12:21 10° SSW 02:16:32 52° W 02:17:57 35° NNW
OAO 1 4.5 02:14:27 29° WSW 02:17:11 64° NW 02:22:39 10° NE
APEX 3.8 02:16:46 28° NNW 02:19:18 77° WSW 02:25:11 10° SSE
Milstar 3 Cent rocket 3.0 02:15:47 25° NW 02:22:16 79° NNE 02:28:03 10° ESE
Cosmos 2112 Rocket 4.3 02:17:11 10° N 02:22:30 72° ENE 02:27:49 10° SSE
Meteor PRIRODA 3.6 02:19:12 10° NNE 02:22:49 80° E 02:26:26 10° S
ARIANE 5 R/B 3.2 02:09:52 21° W 02:23:29 72° SSW 02:27:43 10° ESE
Cosmos 1869 3.2 02:20:20 14° N 02:23:44 84° E 02:27:44 10° S
ARIANE 5 DEB (SYLDA) 3.8 02:21:32 29° W 02:24:35 88° N 02:32:04 10° E
Cosmos 2016 Rocket 4.0 02:18:52 10° S 02:25:03 85° E 02:31:18 10° N
Cosmos 1725 Rocket 4.5 02:19:27 10° S 02:25:35 63° E 02:31:45 10° NNE
USA 267 4.5 02:20:06 10° ENE 02:26:13 43° SE 02:32:20 10° SSW
CZ-4B R/B 4.2 02:23:12 10° N 02:27:21 46° WNW 02:31:22 10° SSW
Cosmos 1680 Rocket 3.4 02:23:02 13° NNW 02:27:48 80° WSW 02:33:06 10° S
Cosmos 1980 Rocket 2.2 02:23:48 10° NNW 02:29:27 88° ENE 02:35:05 10° SSE
Cosmos 1818 3.6 02:24:44 10° SSW 02:30:08 84° ESE 02:35:33 10° NNE
Ariane H10 3.3 02:26:35 21° W 02:31:13 71° N 02:34:10 10° E
Cosmos 1408 Rocket 3.4 02:28:47 10° SSW 02:33:02 63° W 02:37:17 10° N
ARIANE 5 R/B 2.7 02:31:00 22° W 02:33:30 78° S 02:37:51 10° E
Okean O Rocket 3.6 02:30:02 10° NE 02:33:53 31° ESE 02:37:45 10° SSE
Cosmos 2221 3.5 02:33:37 25° W 02:33:54 25° W 02:37:29 10° SSW
Geosat 4.5 02:31:15 10° SSE 02:36:11 60° ENE 02:41:07 10° NNW
Cosmos 1500 Rocket 4.3 02:36:44 10° S 02:41:07 56° E 02:45:28 10° NNE
Helios 1A Rocket 4.5 02:37:50 10° NNE 02:41:34 38° ESE 02:45:20 10° S
Meteor 2-3 Rocket 4.4 02:36:43 10° S 02:42:17 58° E 02:47:54 10° NNE
Cosmos 972 Rocket 3.8 02:38:08 10° SSW 02:43:00 75° W 02:47:58 10° N
Atlas Centaur 2 1.7 02:41:48 18° NW 02:44:10 43° NNE 02:47:38 10° ESE
Intercosmos 25 Rocket 4.0 02:40:10 10° N 02:46:09 76° E 02:49:59 10° S
GPS 2-17 Rocket1 4.2 02:41:48 10° SW 02:46:25 43° SSE 02:51:00 10° E
CZ-4B R/B 4.0 02:47:57 11° NNW 02:50:46 21° W 02:53:51 10° SW
ALOS 2.5 02:48:06 10° NNE 02:52:45 77° ESE 02:57:26 10° S
SL-08 R/B 4.5 02:47:18 10° SSW 02:53:25 61° W 02:59:25 10° N
FENGYUN 3A 3.8 02:49:55 10° NNE 02:55:17 80° ESE 03:00:40 10° S
PSLV R/B 4.3 02:51:42 10° N 02:55:28 38° WNW 02:59:18 10° SSW
Ariane H10+ 1.7 02:54:26 15° W 02:56:09 82° N 02:59:00 10° E
GEOS 3 Rocket 4.5 02:53:40 10° S 02:58:05 30° WSW 03:02:29 10° WNW
Cosmos 1825 2.9 02:54:52 10° SSW 02:58:13 31° W 03:01:34 10° NNW
GPS 2-14 Rocket1 3.9 02:56:13 13° WNW 02:59:05 27° NNW 03:02:38 10° NE
GPS 2-12 Rocket1 4.0 03:00:31 10° NW 03:04:46 37° NNE 03:08:57 10° E
Cosmos 1697 Rocket 4.3 03:03:21 10° WNW 03:06:25 15° WSW 03:09:30 10° SW
Palapa B4 Rocket 3.3 03:07:50 10° WSW 03:13:52 66° NNW 03:17:57 10° ENE
CZ-4B R/B 3.2 03:09:37 10° N 03:15:08 75° WNW 03:20:47 10° SSW
Cosmos 972 4.3 03:10:51 10° SSW 03:15:47 75° W 03:20:38 10° N
Sylda 4400 3.2 03:11:21 10° WSW 03:16:03 65° S 03:18:36 10° E
BLOCK DM-SL R/B 4.1 03:05:58 10° W 03:31:33 83° S 03:35:29 10° E
